Temperature
16 16 16 17 17 17 19 21 22 22 22 21 21 22 21 20 20 17 16 16 16 15 15 16 16 15 15 15 15 15 15 15 15 15 15 15 15 15 15 15 15 15 15 15 15 15 15 15 15
15 15 16 17 17 18 20 21 21 21 21 20 20 21 21 20 18 17 16 15 15 15 15 15 15 15 15 15 15 15 15 15 15 15 15 15 15 15 15 15 15 15 15 15 15 15 15 15 15
15 16 17 17 18 19 20 21 20 20 20 20 20 20 20 19 17 16 15 15 15 14 15 15 15 15 15 15 15 15 15 15 15 15 15 14 15 15 15 15 15 15 15 15 15 15 15 14 15
15 16 18 17 18 20 20 21 20 20 20 20 20 19 18 17 16 15 15 15 15 14 14 15 15 15 15 15 15 15 15 15 15 14 14 14 14 14 14 14 14 15 15 14 14 14 14 14 14
15 17 17 17 18 20 20 21 21 20 20 20 19 19 17 16 16 15 15 15 14 14 14 14 14 14 14 14 14 14 14 14 14 14 14 14 14 14 14 14 14 14 14 14 14 14 14 14 14
16 17 17 17 19 20 20 20 20 20 20 20 19 19 16 15 15 15 15 14 14 14 14 14 14 14 14 14 14 14 14 14 14 14 14 14 14 14 14 14 14 14 14 14 14 14 14 14 14
16 16 17 18 19 19 20 20 20 19 19 19 19 18 16 15 15 14 14 14 14 14 13 13 13 13 14 14 14 14 14 14 14 14 14 14 14 14 14 14 14 14 14 14 14 14 14 14 14
15 16 17 18 18 18 19 19 19 18 18 18 18 17 15 14 14 14 14 14 13 13 13 13 13 13 13 13 13 13 13 13 13 13 13 13 13 13 13 14 14 14 14 14 14 14 14 14 14
15 15 16 17 18 18 18 18 18 17 17 17 16 16 15 14 14 13 13 13 13 13 13 13 13 13 13 13 13 13 13 13 13 13 13 13 13 13 13 13 13 13 13 13 13 13 13 13 13
15 14 15 17 17 17 17 17 17 17 16 16 15 15 14 14 13 13 12 12 12 12 12 12 12 12 12 12 12 12 12 12 12 12 12 13 13 13 13 13 13 13 13 13 13 13 13 13 13
15 15 16 16 16 16 15 16 16 16 14 15 15 14 13 13 12 12 12 12 12 12 12 12 12 12 12 12 12 12 12 12 12 12 12 12 12 12 12 12 12 13 13 13 13 12 12 12 12
15 15 15 15 15 14 14 14 14 14 14 14 14 13 13 12 12 12 12 12 12 11 11 11 12 12 12 12 12 12 12 12 12 12 12 12 12 12 12 12 12 12 12 12 12 12 12 12 12
14 14 14 14 14 13 13 13 13 13 13 13 13 13 12 12 11 11 11 11 11 11 11 11 11 11 11 11 11 11 11 11 11 12 12 12 12 12 12 12 12 12 12 12 12 12 12 12 12
14 14 14 14 13 13 13 13 13 13 13 13 12 12 12 11 11 11 11 11 11 11 11 11 11 11 11 11 11 11 11 11 11 11 11 12 12 12 11 11 11 11 11 12 11 11 11 11 11
13 12 13 13 13 13 12 11 12 13 13 12 12 12 11 11 11 10 10 10 10 10 10 11 10 10 11 11 11 11 11 11 11 11 11 11 11 11 11 11 11 11 11 11 11 11 11 11 11
13 12 12 13 13 13 11 10 12 13 12 12 12 11 11 11 10 10 10 10 10 10 10 10 10 10 10 10 10 10 10 10 10 11 11 11 11 11 11 11 11 11 11 11 11 11 11 11 11
11 11 12 12 12 12 11 10 11 12 12 12 12 11 11 10 10 10 10 10 9 9 10 10 10 10 10 10 10 10 10 10 10 10 10 10 11 11 10 10 10 10 10 10 10 10 10 10 10
11 11 12 12 12 12 11 10 11 12 12 11 11 11 10 10 9 9 9 9 9 9 9 9 9 9 9 9 9 9 9 9 9 10 10 10 10 10 10 10 10 10 10 10 10 10 10 10 10
11 10 10 11 12 11 10 10 10 10 10 10 9 9 9 9 9 9 9 9 8 8 8 9 9 9 9 9 9 9 9 9 9 9 9 9 10 10 10 10 10 10 10 10 10 9 9 9 9
10 10 10 10 11 10 9 9 10 9 9 9 8 8 8 8 7 8 8 8 8 8 8 8 8 8 8 8 8 8 8 8 9 9 9 9 9 9 9 9 9 9 9 9 9 9 9 9 9
9 9 9 9 9 10 9 9 9 9 9 8 7 7 7 6 6 6 6 7 7 7 7 7 7 8 8 8 8 8 8 8 8 8 8 9 9 9 9 9 9 9 9 9 9 9 9 9 9
8 9 8 8 7 7 9 7 8 8 7 6 6 6 5 5 5 5 5 5 6 6 7 7 7 7 7 7 7 7 7 7 8 8 8 8 8 8 8 8 9 9 8 8 8 9 8 9 8
8 8 8 8 7 7 8 7 7 8 6 5 5 5 4 4 4 4 4 4 5 5 6 6 6 6 7 7 7 7 7 7 7 7 7 8 8 8 8 8 8 8 8 8 8 8 8 8 8
7 7 7 7 6 6 7 7 6 5 5 5 4 4 4 3 3 3 3 3 4 4 5 5 5 5 6 6 6 6 6 6 6 6 7 7 7 7 7 7 8 8 8 8 8 8 8 8 8
7 5 5 6 6 6 8 7 5 4 4 4 4 3 3 2 2 2 2 2 3 3 4 4 4 5 5 5 6 6 6 6 6 6 6 7 7 7 7 7 7 7 7 7 7 7 7 7 7
6 6 4 4 5 6 7 5 4 4 4 4 3 3 2 2 2 2 2 2 2 2 3 3 4 4 4 5 5 5 5 5 5 6 6 6 6 7 7 7 7 7 7 7 7 7 7 7 7
5 5 6 4 4 4 5 4 4 4 3 3 2 2 1 1 1 1 1 1 1 2 2 3 3 3 3 4 4 5 5 5 5 5 5 5 6 6 6 6 6 6 6 6 6 6 7 7 7
5 5 4 3 3 4 5 4 3 2 2 2 2 1 1 1 1 1 0 1 1 1 1 2 2 2 3 3 3 4 4 4 5 5 5 5 5 5 5 5 6 6 6 6 6 6 6 6 6
4 4 3 3 4 3 3 3 3 2 2 1 1 1 0 0 0 -0 -0 -0 -0 0 1 1 1 2 2 2 3 3 3 4 4 4 4 4 5 5 5 5 5 5 5 5 5 5 5 5 6
4 3 3 2 2 3 2 1 2 1 1 1 0 -0 -0 -1 -1 -1 -1 -1 -1 -1 -0 0 1 1 1 2 2 2 2 3 3 3 4 4 4 4 4 4 4 4 5 5 5 5 5 5 5
Wind_Speed
10 11 7 2 3 5 6 3 1 3 3 4 6 5 4 4 4 6 3 5 8 11 14 13 12 11 11 10 10 9 9 8 8 8 7 7 7 7 7 7 7 7 7 7 8 9 9 10 10
11 6 4 3 4 5 4 3 1 4 5 4 3 3 2 3 7 7 4 5 7 10 13 12 12 11 10 10 10 9 9 8 7 7 7 7 8 7 7 7 7 7 7 7 8 9 9 10 10
10 7 4 4 5 3 0 4 5 5 6 3 1 2 2 4 5 5 5 5 6 9 12 12 12 11 10 10 9 9 8 8 7 7 7 7 7 7 7 7 8 8 7 7 7 8 9 9 9
5 4 4 5 8 3 2 3 4 4 4 2 0 2 4 5 4 5 6 5 6 8 11 13 12 11 10 9 9 8 8 8 7 7 6 7 7 7 7 7 8 8 8 8 8 8 8 9 8
4 4 5 6 8 3 2 3 2 1 3 4 1 0 3 5 7 7 5 4 6 7 10 12 11 10 10 9 9 8 8 7 7 6 5 6 6 6 7 7 8 8 8 7 8 8 8 8 7
3 4 5 7 5 3 1 1 1 2 2 3 1 2 3 5 6 5 4 4 6 7 8 11 11 11 10 9 8 8 7 6 6 6 5 6 6 6 6 7 7 7 7 7 7 7 7 7 6
4 4 6 7 4 2 1 1 1 3 2 1 0 1 4 5 6 4 4 4 6 6 7 7 8 9 9 9 8 7 7 6 5 5 5 5 5 5 6 6 6 6 6 6 7 7 7 6 5
3 4 6 6 5 3 1 1 2 3 2 2 2 0 3 4 5 4 4 4 5 5 5 5 6 6 6 7 8 7 6 5 5 5 4 5 5 5 5 6 6 6 6 6 6 6 6 5 4
4 4 5 3 3 1 2 1 1 2 2 1 1 3 5 7 5 4 3 3 3 4 4 4 4 5 5 5 6 6 6 6 5 4 4 5 4 5 5 6 6 6 6 6 6 6 5 5 4
4 4 4 3 4 4 4 3 3 0 2 2 0 3 6 6 4 4 3 3 4 4 4 3 4 4 4 4 5 4 4 5 4 3 4 3 3 4 4 6 7 7 7 6 6 6 5 4 3
4 5 3 3 5 5 5 4 3 3 3 2 1 1 4 3 3 3 4 3 4 4 4 3 4 4 3 2 3 3 3 3 3 3 2 2 2 3 3 4 5 6 6 5 4 4 4 4 4
6 5 4 4 3 4 5 5 5 4 4 3 3 2 2 2 3 4 4 3 3 3 3 3 4 3 3 3 2 2 2 2 2 2 2 2 2 2 3 3 4 4 4 4 4 3 3 3 4
8 6 4 4 3 4 5 6 6 5 5 3 2 1 0 2 2 2 2 2 2 3 3 3 4 4 3 3 2 2 2 2 1 2 2 2 2 1 2 2 3 3 4 4 3 2 3 3 3
4 5 5 5 5 4 5 7 6 5 3 2 2 2 2 2 2 2 2 2 2 2 3 3 4 4 3 3 2 1 2 2 2 1 1 2 2 1 1 1 2 2 3 3 3 3 2 2 3
6 6 7 6 5 3 4 8 7 5 3 3 3 3 2 2 1 2 2 2 2 2 2 3 3 3 3 3 2 2 2 2 2 1 2 2 3 2 1 1 1 2 3 3 2 2 2 3 3
7 7 6 4 4 4 3 7 2 1 3 4 4 3 2 2 1 1 1 1 1 2 2 3 2 3 3 2 1 1 2 2 2 2 2 1 2 2 2 1 1 2 3 2 2 1 2 2 2
5 6 6 3 4 3 4 6 3 3 3 3 3 2 1 0 0 0 1 1 1 2 2 3 2 3 3 2 1 1 2 2 2 2 2 2 2 2 2 1 1 2 2 2 1 1 2 2 2
5 6 7 6 2 3 6 7 5 4 2 2 2 2 2 2 2 1 2 2 2 1 2 2 2 2 2 2 1 1 1 1 1 1 2 3 3 3 3 2 2 2 1 1 1 1 1 2 2
8 9 10 8 4 5 8 8 6 3 2 2 3 3 3 3 3 3 3 3 4 3 2 1 1 1 1 2 2 2 3 2 2 1 2 3 3 3 2 2 2 2 2 2 1 1 2 2 2
8 10 10 7 5 7 9 9 5 2 1 2 3 4 5 5 6 6 5 4 3 3 2 1 1 2 1 1 2 2 2 2 2 1 2 3 3 3 3 2 2 3 2 2 2 2 1 1 2
9 8 8 9 10 9 8 7 2 2 3 4 5 6 7 7 6 6 6 5 4 4 3 2 1 1 2 2 2 1 1 0 1 1 2 2 3 4 3 3 2 2 3 3 3 3 3 3 2
8 6 9 10 7 5 4 5 3 3 5 7 7 7 8 8 8 7 7 6 5 5 4 4 3 1 1 2 3 3 2 2 2 2 3 3 3 4 4 4 3 3 2 3 4 3 3 4 3
6 9 10 11 9 7 7 6 3 3 5 6 7 7 8 8 8 8 8 7 7 6 5 4 3 3 1 0 2 3 2 2 1 1 3 3 3 4 4 5 3 3 3 3 3 3 3 3 3
7 9 10 8 4 6 8 6 1 3 4 6 7 7 8 8 8 8 8 8 8 7 6 6 4 3 2 1 1 2 3 3 2 2 2 3 3 2 3 4 3 3 3 3 4 3 4 3 4
5 5 3 2 4 5 2 2 1 5 7 7 7 8 8 9 8 8 9 9 9 8 8 6 5 4 3 2 1 2 3 3 3 3 3 2 2 2 3 2 3 3 3 3 3 3 4 4 4
5 3 2 3 4 4 2 1 3 6 8 8 8 8 9 9 9 8 8 8 8 8 8 8 6 5 4 3 3 2 2 2 2 3 3 3 3 3 3 3 3 3 3 3 3 2 3 3 3
4 2 3 4 5 4 4 3 3 6 8 9 9 10 9 9 9 9 8 8 8 8 8 7 7 6 5 4 4 2 2 1 1 2 2 2 2 3 3 3 3 3 3 4 3 3 3 3 3
3 5 3 2 3 4 4 1 1 5 7 8 9 9 9 9 9 9 8 8 8 8 8 7 7 6 5 5 5 3 3 2 1 1 1 2 2 2 3 3 3 3 3 3 3 3 3 3 3
1 2 2 4 4 3 3 1 5 7 7 7 8 9 9 10 9 9 8 8 8 8 8 7 7 7 6 6 5 4 3 3 1 0 1 1 2 2 3 4 3 3 3 3 3 3 4 4 3
1 2 2 2 4 3 3 1 5 8 9 9 9 9 9 10 9 9 9 9 9 9 9 8 7 7 6 5 5 4 4 4 3 2 1 0 1 2 2 3 3 3 3 3 3 4 4 4 5
Wind_Direction
282 254 242 249 243 234 241 238 280 89 62 37 14 355 7 2 22 97 130 84 94 118 124 128 127 126 122 118 112 107 102 102 105 107 107 109 112 112 106 101 100 98 101 102 104 101 102 101 99
284 266 255 240 243 240 230 193 169 67 78 66 34 341 6 49 71 100 100 85 103 118 125 130 129 127 124 120 115 110 106 102 102 106 108 108 108 109 109 104 99 95 96 97 99 98 102 103 102
274 266 253 241 241 258 336 60 73 77 84 84 91 13 12 50 69 92 96 104 109 115 122 125 131 128 126 122 118 114 108 104 100 101 105 107 108 107 106 100 95 91 91 95 101 102 103 106 106
270 244 245 249 254 269 321 60 76 105 109 120 298 115 93 48 50 80 97 108 110 114 119 125 129 127 127 126 123 118 115 108 103 98 102 105 106 106 103 100 95 89 92 97 102 108 107 106 105
249 255 239 240 246 248 313 43 50 193 150 148 207 116 96 81 78 85 92 103 110 109 114 129 130 129 128 127 126 122 120 116 112 107 107 112 112 110 107 104 101 97 97 102 104 106 106 106 104
258 250 247 243 236 217 205 145 235 248 185 136 178 231 100 98 88 83 91 97 103 105 109 127 134 135 133 130 127 126 125 125 124 120 116 119 119 115 112 110 107 108 107 107 109 106 107 111 111
272 267 259 271 268 250 269 29 312 289 253 147 159 219 122 105 93 97 95 93 96 101 106 116 132 136 137 134 133 135 136 134 134 131 128 130 130 129 126 120 118 119 118 116 114 109 107 116 121
293 289 262 259 264 271 27 38 24 346 332 16 11 351 105 106 96 97 96 96 100 104 114 121 129 127 127 130 132 139 147 150 150 147 140 140 142 144 140 133 131 134 129 124 124 120 114 114 127
272 256 260 285 302 330 47 11 43 47 334 340 34 41 87 101 101 101 103 104 116 124 129 135 132 124 128 136 140 142 149 158 158 154 152 153 151 149 147 142 144 145 140 136 132 130 127 128 132
230 245 255 322 339 343 350 345 340 266 258 266 237 90 98 106 124 141 160 164 155 158 157 152 144 136 131 137 136 137 141 146 156 153 140 152 167 163 154 149 155 151 144 142 144 142 141 138 144
233 246 278 313 338 340 330 322 317 287 271 284 320 87 113 121 149 181 195 191 173 165 159 157 146 139 131 126 133 133 139 137 148 148 155 166 155 136 129 127 136 140 139 137 146 155 163 163 153
252 259 280 291 327 323 308 306 298 275 275 344 18 33 109 159 186 205 210 202 177 161 157 152 144 144 137 133 133 133 125 118 121 140 153 131 113 119 126 129 141 143 148 146 155 174 171 163 159
253 260 271 279 288 285 291 279 280 274 279 305 343 11 229 216 212 211 213 206 192 182 170 155 157 159 152 147 156 141 126 118 130 137 151 111 97 133 137 148 148 157 156 157 165 170 157 144 139
291 293 278 270 268 271 280 276 261 259 263 275 269 237 239 217 211 210 211 208 201 187 170 165 171 168 162 169 170 151 128 135 139 131 138 142 131 122 136 136 147 161 163 163 167 165 154 133 119
278 271 259 242 243 252 292 271 236 242 239 253 257 241 226 221 212 206 210 213 198 190 175 158 167 165 175 176 171 147 140 147 140 141 143 140 137 131 134 132 138 137 150 149 147 131 118 120 111
258 254 252 226 229 212 241 268 267 224 222 237 245 243 218 213 210 200 187 198 173 155 159 158 165 169 184 174 164 150 153 148 139 137 139 142 119 126 103 115 145 132 122 123 136 145 115 109 118
232 258 266 260 218 231 232 265 283 283 251 248 253 244 212 258 354 5 70 127 150 163 153 156 147 169 187 168 144 129 144 151 144 142 139 141 127 130 111 94 92 110 108 117 141 140 142 138 133
298 292 292 292 269 281 265 268 284 296 277 291 323 346 16 11 355 9 59 59 56 87 120 138 147 151 159 161 154 155 156 156 149 141 147 147 148 153 137 131 128 110 125 137 148 152 138 137 136
300 290 287 293 314 303 274 276 288 314 346 353 2 9 6 1 10 29 50 58 48 37 63 113 141 143 143 173 183 188 191 188 184 161 162 163 162 163 149 149 143 145 159 161 148 138 135 134 124
295 287 286 299 317 297 276 276 279 232 122 41 19 14 13 12 20 20 30 37 40 35 17 1 186 170 174 195 194 186 186 187 181 164 167 177 177 171 173 169 170 167 164 164 159 156 165 178 166
295 292 301 302 306 276 266 268 229 125 102 61 36 30 29 23 17 18 18 21 14 11 358 326 302 205 185 185 176 163 143 131 177 185 186 192 186 178 175 180 176 178 175 179 181 178 176 188 213
296 330 315 298 293 278 261 271 240 140 76 51 35 29 24 22 19 18 13 6 4 1 1 350 347 318 179 169 173 178 185 203 232 207 195 187 180 178 177 185 188 187 189 190 189 191 186 179 195
301 315 292 277 268 271 250 246 254 98 47 40 35 28 20 21 22 17 10 3 3 2 2 352 359 345 357 147 183 188 204 225 217 206 201 193 179 177 183 186 186 187 189 196 196 196 199 195 194
311 299 277 249 239 252 233 215 278 46 38 33 32 25 18 15 18 17 11 6 6 4 4 357 354 340 348 349 220 204 211 211 197 215 213 199 185 178 185 190 188 188 189 200 203 199 202 206 205
332 333 328 297 223 238 199 181 96 60 53 46 33 23 20 15 13 14 10 5 1 359 355 353 352 341 337 341 323 246 231 212 198 208 212 206 199 197 192 191 196 192 195 200 197 191 202 205 206
306 305 289 279 279 308 328 196 107 69 57 44 38 31 23 15 10 10 7 2 356 354 353 353 352 342 337 338 327 303 262 219 212 217 208 205 208 210 194 192 198 203 199 198 191 193 201 201 204
319 300 294 290 288 273 245 145 115 53 44 34 28 23 15 10 8 4 2 2 358 353 351 349 349 343 344 341 335 326 312 277 238 222 207 204 204 202 197 197 194 200 200 196 189 197 204 200 206
319 330 318 272 282 273 269 223 29 38 29 25 22 14 5 2 4 1 360 359 356 351 349 350 351 342 343 344 328 331 332 320 292 220 209 210 203 197 189 200 196 200 204 197 190 202 209 205 216
347 336 307 281 268 275 287 351 42 49 32 22 13 6 2 360 358 359 357 355 352 351 350 349 351 348 349 347 344 347 348 340 347 308 234 221 206 200 201 202 201 204 208 204 198 202 204 205 217
16 325 326 286 290 278 280 298 41 47 31 20 8 1 359 359 358 0 360 356 353 350 348 346 346 345 344 344 345 350 351 348 352 341 322 272 240 217 209 209 209 208 212 210 208 212 211 211 215
Height
1501 1502 1504 1507 1509 1509 1503 1494 1487 1490 1492 1495 1496 1496 1498 1501 1504 1514 1514 1512 1512 1512 1514 1515 1517 1519 1521 1522 1524 1525 1527 1528 1529 1530 1531 1532 1533 1534 1535 1536 1537 1538 1539 1540 1541 1541 1542 1543 1544
1501 1504 1507 1507 1508 1509 1501 1491 1491 1492 1495 1497 1498 1499 1499 1502 1505 1509 1510 1512 1512 1513 1514 1516 1517 1519 1521 1523 1524 1525 1527 1528 1529 1531 1531 1532 1534 1535 1536 1537 1538 1538 1539 1540 1541 1542 1543 1544 1545
1503 1505 1507 1504 1503 1502 1497 1490 1491 1493 1496 1498 1500 1501 1502 1505 1507 1509 1510 1511 1513 1513 1514 1516 1517 1519 1521 1522 1524 1525 1527 1528 1529 1531 1532 1533 1534 1535 1536 1537 1538 1539 1539 1540 1541 1542 1543 1544 1545
1505 1506 1505 1504 1501 1494 1491 1491 1492 1494 1497 1499 1500 1502 1504 1507 1508 1509 1509 1511 1513 1513 1514 1516 1517 1519 1521 1522 1524 1525 1527 1528 1529 1530 1531 1533 1534 1535 1536 1537 1538 1539 1540 1541 1542 1543 1544 1545 1546
1505 1505 1504 1503 1497 1492 1490 1491 1493 1495 1496 1499 1501 1502 1505 1507 1507 1508 1509 1511 1512 1513 1514 1515 1517 1519 1520 1522 1523 1525 1526 1528 1529 1530 1531 1532 1533 1535 1536 1537 1538 1539 1540 1541 1542 1543 1544 1545 1546
1506 1503 1504 1502 1494 1491 1490 1492 1493 1494 1496 1498 1500 1502 1505 1506 1507 1508 1509 1511 1512 1513 1514 1515 1517 1518 1520 1521 1523 1524 1526 1527 1528 1529 1531 1532 1533 1534 1536 1536 1537 1539 1540 1540 1541 1542 1544 1545 1546
1506 1502 1501 1496 1494 1492 1491 1492 1493 1495 1496 1498 1500 1502 1504 1505 1506 1507 1509 1510 1511 1512 1513 1514 1516 1518 1519 1521 1522 1523 1525 1526 1528 1529 1530 1531 1532 1534 1535 1536 1537 1538 1539 1540 1541 1542 1544 1545 1546
1503 1503 1497 1494 1493 1493 1492 1493 1495 1496 1497 1499 1500 1501 1503 1505 1505 1507 1508 1509 1510 1511 1513 1514 1515 1517 1518 1519 1521 1522 1524 1525 1527 1528 1529 1530 1532 1533 1534 1535 1536 1537 1538 1540 1541 1542 1543 1545 1546
1503 1505 1500 1495 1494 1493 1493 1494 1495 1497 1498 1499 1500 1502 1503 1503 1504 1505 1507 1508 1509 1510 1512 1513 1514 1516 1517 1518 1520 1521 1522 1524 1525 1527 1528 1529 1531 1532 1533 1534 1535 1536 1537 1539 1540 1541 1543 1544 1546
1502 1503 1497 1495 1494 1494 1494 1495 1496 1497 1498 1499 1500 1501 1502 1502 1503 1504 1505 1507 1508 1509 1510 1512 1513 1514 1516 1517 1518 1520 1521 1522 1524 1525 1526 1528 1529 1530 1532 1533 1534 1535 1536 1537 1539 1541 1542 1543 1545
1498 1498 1496 1496 1496 1496 1496 1497 1497 1497 1498 1499 1500 1500 1500 1501 1502 1503 1505 1506 1507 1508 1509 1510 1512 1513 1514 1515 1517 1518 1519 1521 1522 1523 1525 1526 1527 1529 1530 1531 1532 1534 1535 1536 1538 1539 1541 1542 1544
1497 1495 1496 1496 1497 1497 1497 1497 1497 1497 1498 1498 1498 1499 1499 1499 1500 1501 1503 1504 1506 1506 1508 1509 1510 1511 1513 1514 1515 1516 1518 1519 1520 1522 1523 1524 1525 1527 1528 1529 1531 1532 1533 1534 1536 1537 1539 1541 1542
1496 1495 1496 1496 1496 1497 1497 1497 1497 1496 1497 1497 1497 1497 1497 1498 1499 1500 1501 1503 1504 1505 1506 1507 1508 1509 1510 1512 1513 1515 1516 1517 1518 1520 1521 1522 1523 1525 1526 1527 1529 1530 1531 1533 1534 1536 1537 1539 1541
1495 1495 1495 1495 1495 1496 1496 1495 1496 1493 1495 1495 1495 1495 1496 1496 1497 1498 1499 1500 1501 1502 1503 1505 1506 1507 1508 1510 1511 1512 1514 1515 1516 1518 1519 1520 1521 1522 1524 1525 1527 1528 1530 1531 1532 1534 1536 1537 1539
1496 1496 1494 1493 1494 1494 1496 1494 1492 1492 1493 1493 1494 1494 1494 1495 1495 1496 1497 1498 1499 1500 1501 1502 1504 1505 1506 1507 1509 1510 1511 1513 1514 1515 1517 1518 1519 1521 1522 1523 1524 1526 1528 1529 1531 1532 1534 1535 1537
1496 1496 1495 1491 1492 1492 1498 1496 1491 1490 1491 1491 1492 1492 1493 1493 1494 1494 1495 1496 1497 1498 1498 1500 1501 1502 1504 1505 1506 1507 1509 1510 1511 1513 1514 1516 1517 1518 1520 1521 1522 1524 1525 1527 1528 1530 1532 1533 1535
1496 1497 1493 1492 1490 1491 1494 1493 1490 1489 1489 1489 1490 1490 1491 1491 1491 1492 1493 1494 1494 1495 1496 1497 1498 1500 1501 1502 1503 1504 1506 1507 1508 1510 1511 1513 1514 1516 1517 1519 1520 1522 1523 1525 1527 1528 1530 1531 1533
1499 1496 1492 1492 1490 1491 1492 1491 1489 1488 1487 1488 1489 1489 1490 1490 1490 1490 1491 1491 1492 1493 1494 1495 1496 1497 1498 1499 1501 1502 1503 1504 1505 1507 1508 1510 1511 1513 1515 1516 1518 1519 1521 1522 1524 1526 1528 1529 1531
1498 1497 1496 1492 1489 1491 1491 1489 1488 1487 1487 1487 1488 1489 1489 1489 1490 1489 1489 1490 1490 1490 1491 1492 1492 1494 1495 1496 1497 1498 1499 1500 1502 1504 1506 1507 1509 1510 1512 1514 1515 1517 1518 1520 1521 1523 1525 1527 1529
1499 1498 1495 1492 1490 1491 1489 1487 1486 1485 1487 1488 1489 1489 1489 1489 1488 1488 1488 1488 1488 1488 1489 1489 1490 1491 1492 1493 1494 1495 1496 1497 1499 1501 1503 1504 1506 1507 1509 1511 1512 1514 1516 1517 1519 1521 1522 1524 1526
1498 1498 1497 1497 1493 1489 1489 1488 1485 1484 1485 1488 1489 1490 1490 1489 1488 1487 1486 1486 1486 1486 1487 1487 1488 1488 1489 1490 1492 1493 1494 1494 1496 1497 1499 1501 1503 1504 1506 1508 1509 1511 1513 1514 1516 1518 1520 1521 1523
1501 1497 1497 1496 1498 1497 1490 1496 1487 1485 1487 1489 1490 1491 1491 1490 1488 1487 1486 1486 1485 1485 1485 1485 1485 1485 1486 1487 1488 1489 1489 1490 1492 1494 1496 1498 1499 1501 1503 1505 1506 1508 1510 1511 1513 1515 1517 1519 1520
1501 1498 1496 1494 1495 1497 1490 1494 1490 1485 1490 1492 1493 1493 1492 1491 1489 1488 1487 1486 1485 1484 1483 1483 1483 1482 1482 1483 1484 1486 1487 1488 1489 1491 1492 1494 1496 1498 1499 1501 1503 1504 1506 1508 1510 1511 1513 1515 1517
1501 1497 1491 1490 1494 1499 1486 1491 1492 1493 1494 1494 1495 1494 1493 1492 1490 1489 1487 1486 1484 1483 1482 1481 1480 1480 1480 1480 1482 1483 1484 1485 1486 1487 1489 1490 1492 1493 1496 1498 1499 1501 1503 1504 1506 1507 1509 1512 1513
1503 1505 1504 1500 1497 1492 1480 1488 1498 1497 1496 1497 1497 1496 1495 1493 1491 1489 1487 1485 1483 1481 1480 1479 1478 1477 1477 1478 1479 1480 1481 1482 1483 1484 1485 1486 1488 1489 1492 1494 1496 1497 1499 1501 1502 1504 1506 1508 1509
1507 1506 1513 1514 1501 1492 1485 1493 1500 1497 1498 1498 1498 1497 1496 1494 1492 1490 1488 1485 1483 1480 1479 1477 1476 1475 1475 1475 1475 1477 1478 1479 1480 1481 1483 1484 1485 1486 1488 1490 1492 1494 1496 1497 1498 1500 1502 1504 1505
1508 1507 1505 1509 1505 1504 1494 1495 1497 1497 1498 1499 1499 1498 1496 1494 1492 1490 1487 1485 1482 1480 1477 1476 1474 1474 1472 1472 1472 1473 1474 1475 1477 1478 1480 1481 1482 1483 1485 1486 1488 1490 1491 1493 1495 1496 1498 1499 1501
1510 1509 1510 1511 1509 1505 1492 1495 1502 1501 1501 1500 1500 1499 1497 1495 1492 1490 1487 1484 1481 1479 1476 1474 1473 1471 1470 1470 1469 1469 1471 1472 1473 1475 1476 1478 1479 1480 1481 1483 1484 1486 1488 1489 1490 1492 1493 1495 1496
1513 1513 1512 1511 1507 1510 1506 1508 1504 1505 1504 1504 1503 1501 1499 1496 1493 1490 1487 1484 1481 1478 1475 1473 1471 1469 1468 1467 1466 1466 1467 1469 1470 1471 1473 1474 1476 1477 1478 1479 1480 1482 1483 1485 1486 1487 1489 1490 1492
1512 1513 1514 1520 1515 1509 1510 1516 1506 1506 1506 1506 1505 1502 1500 1497 1493 1490 1487 1484 1480 1477 1474 1471 1469 1468 1466 1465 1464 1464 1465 1465 1467 1468 1469 1471 1472 1473 1474 1476 1477 1478 1480 1481 1482 1483 1485 1486 1488